Warning: Javascript must be enabled to use all the features on this page!


Page Loading - Please Wait...

Click to hideNews Bulletins
  • Explore the NEW USGS National Water Dashboard interactive map to access real-time water data from over 13,500 stations nationwide.
  • Full News RSS icon
  • USGS has scheduled planned maintenance to our IT infrastructure, starting Tuesday, June 28, 2022, from 8:00-10:00am Eastern Daylight Time (EDT). During the maintenance period, there will be a short interruption in the availability of the most recent time-series data. Any backlog will be made available following conclusion of the scheduled maintenance.

Peak Streamflow for Nevada

Click to hide state-specific text


USGS 10333000 HUMBOLDT RV NR IMLAY, NV

Pershing County, Nevada
Hydrologic Unit Code 16040108
Latitude  40°41'33", Longitude 118°12'12" NAD27
Drainage area 15,503.93  square miles
Gage datum 4,133.2 feet above NAVD88
Output formats
Table
Graph
Tab-separated file
peakfq (watstore) format
Reselect output format
Water
Year
Date Gage
Height
(feet)
Stream-
flow
(cfs)
1936 1936-06-04   5641,5
1937 1937-04-06   4051,5
1938 1938-06-09   4801,5
1939 1939-04-21   4971,5
1940 1940-06-18   3631,5
1941 1941-07-08   5881,5
1945 1945-05-31   2,2201,5
1946 1946-05-15   1,2101,5
1947 1947-06-20   3825
1948 1948-06-25 4.25 4305
1949 1949-06-06 5.46 6445
1950 1950-07-02 5.49 6485
1951 1951-03-04 5.90 7365
1952 1952-05-09 12.15 6,0805
1953 1953-03-28 4.90 5385
1954 1954-04-04 3.26 2765
1955 1955-06-28 2.46 1525
1956 1956-06-30 6.48 8825
1957 1957-07-05 7.08 1,0405
1958 1958-06-23 7.09 1,0605
1959 1959-03-23 2.83 1785
1960 1960-04-08 2.66 1715
1961 1961-06-16 2.36 1365
1962 1962-06-19 7.18 1,0705
1963 1963-07-13 7.32 1,1305
1964 1964-07-01 7.13 1,0805
1965 1965-07-08 7.55 1,1505
1966 1966-04-21 3.90 3205
1967 1967-07-17 6.47 9185
1968 1968-07-05 4.18 4025
1969 1969-04-24 10.64 2,7505
1970 1970-07-09 6.75 8605
1971 1971-06-10 9.91 1,9105
1972 1972-04-02 7.65 1,1005
1973 1973-06-16 7.52 1,0605
1974 1974-04-18 6.81 8385
1975 1975-06-04 10.48 2,5805
1976 1976-08-23 4.942 5155
1977 1977-06-18 4.03 3255
1978 1978-05-17 6.63 7545
1979 1979-06-16 7.65 9825
1980 1980-06-22 10.31 1,8205
1981 1981-02-19 4.662 1945
1982 1982-05-22 8.79 1,1705
1983 1983-06-17 12.03 4,1905
1984 1984-05-27 13.20 9,2705
1985 1985-04-24 9.29 1,5005
1986 1986-03-10 9.98 2,4305
1987 1987-06-19 4.34 3285
1988 1988-03-09 5.14 4815
1989 1989-04-09 7.38 1,0205
1990 1990-03-11 4.63 4065
1991 1991-07-01 4.87 4305
1992 1992-03-15 3.26 1875
1993 1993-04-13 8.81 1,3505
1994 1994-06-19 4.61 3845
1995 1995-07-02 10.23 2,2305
1996 1996-04-21 9.15 1,4805
1997 1997-06-29 10.20 1,8605
1998 1998-06-26 11.02 2,3005
1999 1999-06-19 9.13 1,6105
2000 2000-03-16 5.18 4655
2001 2001-06-06 4.12 2245
2002 2002-06-19 5.45 4375
2003 2003-06-27 4.71 3915
2004 2004-03-31 5.52 5385
2005 2005-06-04 12.50 5,0205
2006 2006-04-19 12.92 4,7105
2007 2007-03-26 5.06 2975
2008 2008-07-05 5.26 3555
2009 2009-07-04 6.28 5325
2010 2010-07-09 6.09 5945
2011 2011-07-18 9.93 1,3805
2012 2012-03-31 4.55 2595
2013 2013-03-26 2.83 85.05
2014 2014-06-22 3.33 1015
2015 2015-06-15 4.03 1645
2016 2016-06-24 8.20 8705
2017 2017-04-05 11.93 2,9305
2018 2018-04-27 7.27 4965
2019 2019-06-25 11.00 1,8105
2020 2020-06-20 4.712 2435
2021 2021-06-18 2.95 70.25
?
  Peak Gage-Height Qualification Codes.
?
  Peak Streamflow Qualification Codes.